Location: LDNL
(36.4545°S, 141.6685°E)
Time: 19:31:07
(UTC+10:00)

A-11 Canister half - Pass Details

Date: 02 February 2022
Orbit: 1527 x 1682 km, 47.3° (Epoch: 20 May)

Event Time Altitude Azimuth Distance (km) Brightness Sun altitude
Rises 21:06:29 0° 328° (NNW) 4,898 11.7 -5.2°
Reaches altitude 10° 21:09:44 10° 333° (NNW) 3,925 11.2 -5.8°
Maximum altitude 21:19:24 52° 45° (NE) 2,016 9.3 -7.5°
Drops below altitude 10° 21:29:06 10° 117° (ESE) 3,944 10.8 -9.2°
Sets 21:32:21 0° 122° (ESE) 4,922 11.4 -9.8°
